Zurück zum Katalog

TSIKADA

AktivNavigationPO
NORAD 23463·PAYLOAD·🇷🇺 Russia

Gestartet Jan 24, 1995 von Plesetsk Cosmodrome

Loading…

Nächste Überflüge (nächste 24 Stunden)

TLE

AktuellSource: Space-Track

Epoche: Sep 14, 2026, 10:09 UTC

1 23463U 95002A   26257.42335502  .00000042  00000-0  29262-4 0  9991
2 23463  82.9275 309.9294 0037594 250.8884 119.3024 13.72740336584555

Verfolge TSIKADA in Echtzeit mit AllMySat

Download on the App Store